Location: Владивосток
(43.1151°N, 131.8856°E)
Time: 20:54:40
(UTC+10:00)

DX 1 - Pass Details

Date: 06 July 2022
Orbit: 617 x 629 km, 98.4° (Epoch: 10 August)

Event Time Altitude Azimuth Distance (km) Brightness Sun altitude
Rises 22:49:00 0° 8° (N) 2,927 ? -15.9°
Reaches altitude 10° 22:51:14 10° 4° (N) 2,013 ? -16.2°
Maximum altitude 22:55:30 54° 288° (WNW) 762 ? -16.6°
Drops below altitude 10° 22:59:44 10° 211° (SSW) 1,991 ? -17.0°
Enters shadow 23:00:05 - 210° (SSW) 2,130 ? -17.1°
